カタログに戻る

GEESAT 3-06

運用中科学LEO
NORAD 61016·PAYLOAD·🇨🇳 China

打ち上げ Sep 5, 2024 から Taiyuan Satellite Launch Center

Loading…

次のパス (今後24時間)

TLE

最新Source: Space-Track

元期: Sep 14, 2026, 20:21 UTC

1 61016U 24159F   26257.84838724  .00001532  00000-0  20667-3 0  9996
2 61016  49.9993  27.3684 0016163  63.3467 296.9125 14.84498035110085

AllMySatでGEESAT 3-06をリアルタイム追跡

Download on the App Store